Miscellaneous Local Product
Issued by NWS North Platte, NE

Home | Current Version | Previous Version | Graphics & Text | Print | Product List | Glossary On
Versions: 1 2 3 4 5 6 7 8 9 10 11 12 13 14 15 16 17 18 19 20 21 22 23 24 25 26 27 28 29 30 31 32 33 34 35 36 37 38 39 40 41 42 43 44 45 46 47 48 49 50
000
AXUS43 KLBF 010710
MISLBF


WESTERN AND NORTH CENTRAL NEBRASKA HOURLY WEATHER ROUNDUP
NATIONAL WEATHER SERVICE NORTH PLATTE NE
200 AM CDT WED JUL 01 2015

***STATIONS NOT REPORTING VARIABLES SUCH AS SKY/WEATHER OR
PRESSURE ARE PROVIDED BY THE NEBRASKA DEPARTMENT OF
ROADS...RAWS...AND APRS NETWORKS...AND ARE NOT UNDER
NATIONAL WEATHER SERVICE QUALITY CONTROL***

...OBSERVATIONS IN AND NEAR THE EASTERN PANHANDLE OF NEBRASKA...

CITY           SKY/WX    TMP DP  RH WIND       PRES   REMARKS
PINE RIDGE     CLEAR     65  62  90 NE3       29.94S
CHADRON        PTCLDY    66  64  93 SW9       29.93F
ALLIANCE       PTCLDY    68  64  87 W9        29.99R
SIDNEY         CLOUDY    69  58  67 NW10      30.03F
WHITECLAY        N/A     65  64  94 SE5         N/A
CRESCENT LAKE    N/A     73  67  81 W7          N/A
BIG SPRINGS      N/A     80  62  54 W3          N/A
$$

...OBSERVATIONS IN NORTH CENTRAL NEBRASKA...

CITY           SKY/WX    TMP DP  RH WIND       PRES   REMARKS
VALENTINE      CLEAR     64  61  90 S5        29.90S
THEDFORD       PTCLDY    65  62  89 E5        29.91F
AINSWORTH      PTCLDY    65  62  87 SE6       29.90S
O`NEILL        MOCLDY    67  64  89 E5        29.89S
ORD            MOCLDY    68  61  78 SE8       29.86F
BROKEN BOW     CLEAR     66  62  87 E7        29.89S
VALENTINE NWR    N/A     65  60  85 CALM        N/A
SPRINGVIEW       N/A     65  61  86 CALM        N/A
HALSEY           N/A     66  61  83 E8          N/A
BREWSTER         N/A     68  65  92 SE6         N/A
ROSE             N/A     78  77  99 S13         N/A
NEWPORT          N/A     67  64  87 CALM        N/A
SARGENT          N/A     66  61  85 CALM        N/A
CHAMBERS         N/A     65  62  90 E3          N/A
EWING            N/A     65  63  93 E3          N/A
$$

...OBSERVATIONS IN SOUTHWEST NEBRASKA AND FAR NORTHEAST COLORADO...

CITY           SKY/WX    TMP DP  RH WIND       PRES   REMARKS
WRAY           FAIR      79  56  45 W9        29.94F
HOLYOKE        FAIR      81  54  39 NW18G31   29.95R
IMPERIAL       CLOUDY    76  56  49 W8        29.88F
OGALLALA       CLOUDY    74  62  65 W10       29.89R
NORTH PLATTE   PTCLDY    70  66  87 E9        29.86F
MCCOOK         MOCLDY    79  54  41 W7        29.82F
LEXINGTON      MOCLDY    70  64  81 E3        29.89R
PAXTON           N/A     74  59  59 NE3         N/A
GOTHENBURG       N/A     69  62  78 E9          N/A
CALLAWAY         N/A     67  64  89 E14         N/A
$$

...NORTH PLATTE AREA...

CITY           SKY/WX    TMP DP  RH WIND       PRES   REMARKS
AIRPORT        PTCLDY    70  66  87 E9        29.86F
DOWNTOWN         N/A     73  67  83 CALM        N/A
HILLCREST        N/A     70  67  90 CALM        N/A
$$

...SOME WEATHER OBSERVATIONS FROM AROUND THE REGION...

CITY           SKY/WX    TMP DP  RH WIND       PRES   REMARKS
DENVER         CLOUDY    70  53  54 SW7       30.14S
LARAMIE        CLOUDY    58  55  90 SE8       30.25F
CHEYENNE       MOCLDY    60  56  86 W6        30.17F
SCOTTSBLUFF    PTCLDY    69  58  67 NW10      30.01F
RAPID CITY     PTCLDY    68  66  93 CALM      29.93R
PIERRE         CLOUDY    65  64  97 SE8       29.84F
WINNER         FAIR      69  60  73 S6        29.87F
SIOUX FALLS    PTCLDY    65  62  90 E7        29.92R
OMAHA          CLOUDY    69  66  90 SE12      29.88F
GRAND ISLAND   MOCLDY    71  60  68 E18       29.86F
KANSAS CITY    CLOUDY    70  66  87 E14       29.87F
WICHITA        MOCLDY    82  63  52 S14       29.86S
HAYS           PTCLDY    81  54  39 SW17      29.85S
LIBERAL        CLEAR     73  55  53 S13       29.99S
GOODLAND       MOCLDY    78  54  43 NW9       29.96R
$$



USA.gov is the U.S. government's official web portal to all federal, state and local government web resources and services.